Wind_Speed
5 5 5 5 6 6 7 7 7 8 8 9 9 10 10 11 12 12 13 14 14 15 15 16 17 18 19 19 20 20 21 22 22 23 24 24 24 24 25 25 25 26 26
5 5 5 5 6 6 6 7 7 8 9 9 10 11 11 12 13 13 14 15 15 16 16 17 17 18 18 19 20 20 21 22 23 24 25 25 26 26 26 26 27 27 27
4 4 5 5 6 6 7 7 8 9 10 10 11 12 13 13 14 14 15 15 16 17 17 18 18 19 19 20 21 21 22 23 24 25 26 26 27 27 27 28 28 28 29
4 4 5 5 5 6 7 8 8 9 10 11 12 13 13 14 15 15 16 16 17 17 18 18 19 20 20 21 22 22 23 24 25 26 26 27 28 28 29 29 29 29 30
4 4 5 5 6 7 8 8 9 10 11 12 13 14 14 15 15 16 17 18 18 19 19 20 20 21 21 22 22 23 24 24 25 25 26 27 27 28 28 29 29 29 30
4 4 5 6 7 8 8 9 10 11 12 13 13 14 15 16 16 17 18 18 18 19 19 20 20 21 22 22 23 23 24 24 25 25 26 26 27 28 28 29 29 30 30
4 5 6 6 7 8 9 10 11 12 13 13 14 14 15 16 16 17 17 18 18 19 19 20 20 21 22 23 23 23 24 25 25 26 27 27 28 28 29 29 30 31 31
5 5 6 7 8 9 10 11 12 13 13 14 14 15 16 16 17 17 18 18 19 19 20 20 21 22 22 23 24 24 24 25 26 26 27 28 28 29 30 30 30 31 31
7 7 8 9 10 10 11 12 13 14 14 15 15 16 17 17 18 18 19 20 20 20 21 22 22 23 23 24 24 25 25 25 26 26 27 28 28 29 29 30 30 31 32
9 9 10 10 11 11 12 13 14 15 15 16 16 17 18 18 19 19 20 21 21 22 22 23 23 24 24 24 25 25 26 26 27 27 27 28 28 29 30 30 31 31 32
10 11 11 12 12 13 13 14 15 16 16 17 17 18 19 19 20 21 21 22 22 23 23 24 24 25 25 25 26 27 27 27 28 28 28 28 29 30 30 31 31 32 32
11 12 13 13 14 15 15 16 17 17 18 18 19 19 20 21 21 22 22 23 24 24 25 25 25 26 26 27 27 28 28 28 29 29 29 30 30 31 31 31 32 32 32
13 13 14 14 15 16 17 18 19 19 19 20 20 21 21 22 22 23 24 24 25 25 26 26 27 27 27 28 28 29 29 29 29 30 30 31 31 31 32 32 32 33 33
14 15 15 15 16 17 18 19 19 20 20 21 21 22 23 23 24 24 25 25 26 26 27 28 28 28 28 29 29 30 30 30 30 30 31 31 32 32 33 33 34 34 34
16 16 16 17 18 18 19 19 20 21 21 22 22 23 24 24 25 25 26 27 27 28 29 29 30 30 30 30 30 31 31 31 31 32 32 32 33 33 33 34 35 35 36
18 18 18 19 19 19 20 20 21 22 22 23 24 24 25 25 26 27 27 28 29 29 30 31 31 31 31 31 31 32 32 32 32 33 33 33 34 34 35 35 36 36 37
19 19 20 20 21 21 21 22 22 22 23 24 25 26 26 27 27 28 28 29 30 30 31 31 32 32 32 32 32 33 33 33 33 33 34 34 34 35 35 36 37 38 38
21 21 21 22 22 22 23 23 23 24 25 26 26 27 27 28 28 29 29 30 30 31 32 32 32 32 32 33 33 33 34 34 34 34 35 35 36 36 37 38 38 39 39
23 23 23 23 23 24 24 24 24 25 26 27 27 28 28 29 29 30 30 31 31 32 32 32 32 33 33 34 34 34 35 35 35 35 36 36 37 38 39 39 40 40 41
24 24 24 25 25 25 25 25 26 26 27 28 28 29 29 29 30 30 31 32 32 32 32 33 33 34 34 35 35 35 36 36 36 37 37 38 39 39 40 40 41 41 42
25 25 25 26 26 26 26 26 27 27 28 29 29 29 30 30 30 31 32 32 32 33 33 34 34 35 35 35 36 36 36 37 38 38 39 40 40 41 41 42 42 43 43
26 26 27 27 27 27 27 27 28 29 29 29 30 30 30 30 30 31 32 33 33 34 34 35 35 36 36 36 37 37 38 38 39 40 40 41 41 42 43 44 44 44 45
28 28 28 28 28 28 28 28 29 29 30 30 30 31 31 31 31 32 33 34 34 34 35 35 36 37 37 38 38 39 40 40 40 40 41 42 43 44 44 45 45 45 46
29 29 28 28 28 28 29 29 30 30 31 31 31 31 31 32 33 33 34 34 35 35 36 36 37 38 39 39 39 40 41 42 42 42 42 43 44 44 44 45 46 46 47
30 30 29 29 29 29 30 30 30 30 31 31 31 32 32 33 33 34 35 35 35 36 37 38 38 39 40 40 41 41 42 42 43 44 43 44 44 45 45 46 47 47 48
31 30 30 30 30 30 30 30 31 31 31 31 32 32 33 33 34 35 35 36 36 37 38 38 39 40 41 41 41 42 43 43 44 45 45 45 45 46 46 48 48 49 49
Wind_Direction
253 252 253 256 260 265 268 272 276 279 282 283 285 285 285 285 284 283 281 280 279 279 278 277 277 277 277 277 277 277 277 276 276 275 275 274 274 274 273 272 271 270 269
253 253 255 259 265 270 274 276 278 281 283 285 285 286 287 287 286 285 285 284 284 283 282 281 281 280 279 279 278 278 278 277 277 276 276 276 275 274 273 272 271 271 270
254 255 256 264 270 274 278 279 280 282 285 286 286 287 288 288 288 287 286 286 286 285 285 284 283 282 282 282 281 281 280 280 279 278 277 276 276 275 273 272 271 271 271
256 259 264 269 274 278 280 282 285 286 287 288 289 289 289 289 289 288 288 288 288 287 286 286 286 285 285 284 283 282 282 281 280 279 278 277 276 275 274 274 273 272 272
266 273 277 277 279 280 283 284 287 289 290 292 292 292 291 290 290 290 291 291 291 290 289 288 288 288 287 286 286 285 283 282 281 281 280 278 277 276 276 275 275 274 273
278 283 286 286 287 287 287 289 292 294 294 295 295 295 295 293 293 293 294 294 293 293 292 292 291 290 289 289 288 287 286 284 283 282 281 280 279 278 277 276 276 275 275
280 286 290 292 293 293 290 291 293 296 296 296 297 297 298 297 297 297 297 297 296 295 295 294 293 292 292 291 290 289 288 287 286 284 283 282 281 280 279 278 277 277 276
282 288 292 294 296 296 295 295 296 297 297 297 298 299 300 300 300 299 299 299 298 297 296 296 296 295 294 293 292 291 290 289 288 287 285 284 283 282 281 280 278 278 277
286 290 293 294 294 295 297 298 298 298 297 297 297 298 299 300 300 300 300 301 300 299 298 298 297 296 296 295 294 293 292 291 290 289 287 286 285 284 283 282 281 280 279
285 291 294 294 294 295 297 299 298 298 297 297 297 298 299 299 300 299 300 300 300 300 300 299 299 298 297 296 296 295 294 292 292 291 290 289 287 286 285 284 283 282 281
286 290 293 294 294 295 296 298 299 298 298 298 298 298 299 300 300 300 300 300 300 300 300 299 299 299 299 298 297 296 295 294 293 293 292 291 290 289 287 286 285 284 283
287 290 291 292 293 295 295 296 298 298 298 298 298 298 299 300 301 301 301 300 300 300 299 299 299 299 299 298 297 297 296 295 294 293 292 292 291 290 289 288 287 286 285
286 288 290 291 292 293 295 296 297 297 297 297 297 298 300 301 301 301 300 300 300 300 299 299 298 298 298 297 297 297 297 296 295 294 293 292 292 292 291 290 288 287 286
283 286 288 290 291 293 294 296 297 298 298 298 298 299 300 300 300 300 300 300 300 301 301 300 299 299 298 298 297 297 297 296 295 294 293 293 293 292 292 291 290 289 288
280 283 286 289 290 291 293 294 295 296 297 297 298 299 300 300 301 300 300 300 300 300 301 301 301 299 298 298 298 297 297 296 295 295 294 293 293 293 292 292 291 290 290
278 281 284 287 289 290 291 292 293 294 295 297 297 298 299 300 300 300 300 300 301 301 301 301 301 299 299 299 299 298 297 296 295 295 294 294 293 293 293 292 292 291 291
278 280 283 286 287 288 289 290 291 293 294 296 297 298 299 299 299 299 300 300 301 302 302 301 300 300 299 299 299 298 298 297 296 295 295 294 294 293 293 293 293 292 291
276 279 281 284 285 287 288 289 290 292 294 295 297 298 298 298 299 300 301 301 302 303 303 302 301 300 300 299 299 299 298 297 296 296 295 295 294 294 294 294 293 292 291
275 278 280 282 283 285 287 289 290 291 293 294 296 297 298 298 299 300 301 302 302 303 303 302 301 301 300 300 299 299 298 298 297 297 296 296 295 295 295 294 294 293 292
273 276 278 280 282 284 286 288 290 291 293 294 295 297 298 299 300 300 301 302 302 302 302 302 301 301 301 300 300 299 299 299 298 298 297 297 296 296 296 295 295 293 293
272 274 276 278 280 282 284 286 289 290 292 293 294 296 298 299 299 300 301 301 301 301 301 301 301 301 301 300 300 299 299 299 299 298 298 297 297 296 296 296 295 294 293
271 273 275 277 279 281 282 285 287 289 291 293 295 296 297 298 299 300 301 301 301 301 301 302 301 301 300 300 300 299 299 299 298 298 298 297 297 297 297 296 295 294 293
270 272 275 276 278 279 281 284 286 288 290 292 294 294 295 296 298 299 300 301 301 301 301 301 301 301 301 300 300 300 299 299 298 297 297 297 297 297 296 296 296 294 293
269 271 274 276 277 279 281 283 285 287 289 291 292 293 294 295 297 299 299 300 301 301 301 301 301 301 301 300 299 299 299 299 299 299 298 297 297 297 296 296 296 295 294
269 271 273 275 276 278 280 282 283 286 288 290 291 293 294 296 297 298 299 299 300 301 301 301 301 301 301 300 300 299 299 300 300 300 299 298 297 297 297 297 296 295 295
268 270 272 274 275 278 280 281 283 284 286 288 290 292 294 295 296 297 298 299 299 300 300 301 301 301 301 300 300 299 299 300 300 299 299 299 298 297 297 297 297 296 296
Height
5878 5878 5878 5878 5878 5877 5877 5877 5876 5876 5876 5875 5875 5874 5873 5872 5872 5871 5870 5869 5868 5866 5865 5864 5863 5862 5861 5860 5859 5858 5857 5856 5855 5854 5853 5852 5851 5850 5849 5848 5847 5846 5845
5877 5877 5877 5876 5876 5876 5876 5875 5875 5875 5874 5874 5873 5872 5871 5870 5869 5868 5867 5866 5865 5864 5863 5861 5860 5859 5858 5857 5856 5855 5853 5852 5851 5850 5849 5848 5846 5845 5844 5843 5842 5841 5840
5876 5875 5875 5875 5875 5875 5874 5874 5874 5873 5872 5872 5871 5870 5869 5868 5867 5866 5865 5863 5862 5861 5859 5858 5857 5856 5855 5853 5852 5851 5850 5848 5847 5846 5844 5843 5842 5841 5840 5839 5838 5837 5836
5875 5874 5874 5874 5874 5873 5873 5872 5872 5871 5871 5870 5869 5868 5867 5866 5864 5863 5862 5861 5859 5858 5856 5855 5854 5852 5851 5850 5848 5847 5845 5844 5843 5841 5840 5838 5837 5836 5835 5834 5833 5832 5831
5873 5873 5873 5872 5872 5872 5871 5871 5870 5869 5868 5868 5866 5865 5864 5863 5861 5860 5859 5857 5856 5854 5853 5851 5850 5848 5847 5846 5844 5843 5841 5840 5838 5837 5835 5834 5832 5831 5830 5828 5827 5826 5825
5872 5872 5871 5871 5870 5870 5869 5869 5868 5867 5866 5865 5864 5863 5861 5860 5858 5857 5855 5854 5852 5851 5849 5847 5846 5844 5843 5841 5840 5838 5837 5835 5833 5832 5830 5829 5827 5826 5825 5823 5822 5821 5820
5871 5870 5870 5869 5868 5868 5867 5866 5866 5865 5864 5862 5861 5860 5858 5857 5855 5854 5852 5850 5849 5847 5845 5844 5842 5840 5839 5837 5835 5834 5832 5830 5829 5827 5825 5824 5822 5821 5819 5818 5817 5815 5814
5869 5869 5868 5867 5866 5866 5865 5864 5863 5862 5861 5860 5859 5857 5856 5854 5852 5851 5849 5847 5846 5844 5842 5840 5838 5836 5835 5833 5831 5829 5827 5826 5824 5822 5820 5818 5817 5815 5814 5812 5811 5809 5808
5868 5867 5866 5865 5864 5863 5863 5862 5861 5860 5859 5857 5856 5854 5853 5851 5849 5848 5846 5844 5842 5840 5838 5836 5834 5832 5830 5828 5826 5825 5823 5821 5819 5817 5815 5813 5811 5809 5808 5806 5804 5803 5801
5866 5865 5864 5863 5862 5861 5860 5859 5858 5857 5856 5854 5853 5851 5849 5848 5846 5844 5842 5840 5838 5836 5834 5832 5830 5828 5826 5824 5822 5820 5818 5816 5814 5811 5809 5807 5806 5804 5802 5800 5798 5797 5795
5863 5863 5862 5861 5860 5859 5858 5857 5855 5854 5853 5851 5850 5848 5846 5844 5842 5840 5838 5836 5834 5832 5830 5828 5826 5824 5821 5819 5817 5815 5813 5810 5808 5806 5804 5802 5800 5798 5796 5794 5792 5790 5788
5861 5860 5859 5858 5857 5856 5855 5854 5852 5851 5849 5848 5846 5844 5843 5841 5839 5836 5835 5832 5830 5828 5826 5824 5821 5819 5817 5814 5812 5810 5807 5805 5803 5800 5798 5796 5794 5792 5790 5787 5786 5784 5782
5858 5857 5856 5855 5854 5853 5852 5850 5849 5847 5846 5844 5843 5841 5839 5837 5835 5833 5831 5828 5826 5824 5821 5819 5817 5814 5812 5809 5807 5804 5802 5799 5797 5795 5792 5790 5788 5786 5783 5781 5779 5777 5775
5854 5853 5852 5852 5851 5849 5848 5847 5845 5844 5842 5841 5839 5837 5835 5833 5831 5828 5826 5824 5821 5819 5817 5814 5812 5809 5807 5804 5801 5799 5796 5794 5791 5789 5786 5784 5782 5779 5777 5774 5772 5770 5768
5850 5849 5849 5848 5847 5846 5844 5843 5841 5840 5838 5836 5835 5833 5830 5828 5826 5824 5821 5819 5817 5814 5812 5809 5806 5804 5801 5798 5796 5793 5790 5788 5785 5782 5780 5777 5775 5772 5770 5767 5765 5763 5760
5846 5845 5844 5843 5842 5841 5840 5839 5837 5835 5834 5832 5830 5828 5826 5824 5821 5819 5817 5814 5811 5809 5806 5804 5801 5798 5795 5793 5790 5787 5784 5781 5779 5776 5773 5771 5768 5765 5763 5760 5758 5755 5753
5841 5841 5840 5839 5838 5837 5835 5834 5833 5831 5829 5827 5825 5823 5821 5819 5816 5814 5811 5809 5806 5803 5801 5798 5795 5792 5789 5786 5784 5781 5778 5775 5772 5769 5766 5764 5761 5758 5755 5753 5750 5747 5745
5836 5836 5835 5834 5833 5832 5830 5829 5828 5826 5824 5822 5820 5818 5816 5813 5811 5808 5806 5803 5800 5797 5795 5792 5789 5786 5783 5780 5777 5774 5771 5768 5765 5762 5759 5756 5753 5750 5747 5744 5742 5739 5736
5831 5830 5830 5829 5828 5826 5825 5824 5822 5820 5819 5817 5814 5812 5810 5807 5805 5803 5800 5797 5794 5791 5788 5785 5782 5779 5776 5773 5770 5767 5764 5761 5758 5755 5751 5748 5745 5742 5739 5736 5733 5730 5727
5826 5825 5824 5823 5822 5821 5820 5818 5817 5815 5813 5811 5809 5806 5804 5802 5799 5797 5794 5791 5788 5785 5782 5779 5776 5773 5770 5766 5763 5760 5757 5754 5750 5747 5743 5740 5737 5734 5730 5727 5724 5720 5717
5820 5819 5818 5817 5816 5815 5814 5812 5811 5809 5807 5805 5803 5800 5798 5796 5793 5790 5787 5785 5782 5778 5775 5772 5769 5766 5762 5759 5756 5753 5750 5746 5742 5739 5735 5732 5728 5725 5721 5717 5714 5711 5707
5813 5813 5812 5811 5810 5809 5808 5806 5804 5802 5801 5799 5796 5794 5792 5789 5787 5784 5781 5778 5775 5772 5769 5765 5762 5758 5755 5751 5748 5745 5742 5739 5735 5731 5727 5723 5719 5715 5711 5707 5704 5700 5696
5806 5806 5805 5804 5803 5802 5801 5799 5798 5796 5794 5792 5790 5787 5785 5782 5780 5777 5774 5771 5768 5765 5761 5758 5754 5751 5748 5744 5740 5736 5733 5730 5727 5723 5718 5714 5709 5705 5701 5697 5693 5689 5685
5800 5799 5798 5797 5796 5795 5794 5792 5791 5789 5787 5785 5783 5781 5778 5776 5773 5770 5767 5764 5761 5757 5754 5750 5747 5743 5739 5736 5732 5728 5724 5720 5716 5713 5710 5705 5700 5695 5691 5687 5682 5678 5674
5792 5792 5791 5790 5789 5788 5787 5785 5784 5782 5780 5778 5776 5774 5771 5769 5766 5763 5760 5757 5753 5750 5746 5743 5739 5735 5731 5727 5723 5719 5715 5711 5706 5702 5699 5695 5690 5686 5681 5676 5672 5667 5663
5784 5784 5783 5782 5781 5780 5779 5778 5776 5775 5773 5771 5768 5766 5764 5761 5758 5755 5752 5749 5745 5742 5738 5734 5731 5727 5723 5718 5714 5710 5706 5701 5697 5692 5688 5684 5680 5676 5670 5665 5660 5656 5651